Date,TemperatureHighF,TemperatureAvgF,TemperatureLowF,DewpointHighF,DewpointAvgF,DewpointLowF,HumidityHigh,HumidityAvg,HumidityLow,PressureMaxIn,PressureMinIn,WindSpeedMaxMPH,WindSpeedAvgMPH,GustSpeedMaxMPH,PrecipitationSumIn
2013-3-1,60,48,38,43,38,34,95,70,39,30.29,30.11,11,4,22,0.01
2013-3-2,48,41,34,38,34,31,97,76,54,30.40,30.27,13,4,22,0.01
2013-3-3,59,44,28,42,34,28,99,72,40,30.45,30.15,5,1,10,1.86
2013-3-4,72,61,47,62,55,42,96,81,60,30.20,29.89,10,4,21,0.01
2013-3-5,73,65,53,65,53,35,95,69,33,30.32,29.91,10,5,23,0.00
2013-3-6,63,51,37,38,34,31,80,53,31,30.47,30.24,9,3,15,0.00
2013-3-7,67,52,36,42,38,34,95,64,32,30.44,30.22,5,1,9,0.00
2013-3-8,73,53,39,53,43,38,99,76,33,30.37,30.17,6,1,13,0.00
2013-3-10,77,66,55,67,62,54,99,87,69,30.01,29.81,9,5,22,0.92
2013-3-11,59,52,45,55,44,39,99,75,48,30.15,29.95,13,5,23,1.20
2013-3-12,68,52,37,45,41,36,99,71,36,30.31,30.12,6,1,16,0.01
2013-3-13,68,55,42,45,40,30,97,63,26,30.47,30.31,10,3,24,0.00
2013-3-14,71,55,37,50,40,35,97,62,28,30.54,30.28,6,1,12,0.00
2013-3-15,75,60,45,57,51,44,98,75,36,30.37,30.10,9,2,15,0.00
2013-3-16,76,65,51,61,57,50,98,79,49,30.18,29.89,7,2,16,0.00
2013-3-17,77,68,60,68,64,59,98,87,65,29.98,29.76,7,2,13,0.00
2013-3-18,82,74,70,70,68,64,96,83,61,29.92,29.70,8,2,18,0.00
2013-3-19,79,67,54,64,52,45,87,61,38,30.06,29.88,9,3,16,0.00
2013-3-20,72,61,51,54,45,35,98,59,28,30.25,30.01,14,3,22,0.24
2013-3-21,70,58,46,49,43,38,85,62,37,30.13,29.81,10,2,17,0.08
2013-3-22,80,68,58,71,64,49,97,88,69,29.89,29.67,6,1,13,0.01
2013-3-23,72,70,68,71,69,67,98,97,95,29.79,29.57,4,1,10,0.07
2013-3-24,69,61,49,68,51,36,98,74,39,30.15,29.64,13,5,26,0.01
2013-3-25,60,49,38,37,32,28,80,54,30,30.39,30.14,12,5,22,0.00
2013-3-26,58,46,33,35,31,27,90,58,38,30.55,30.34,10,3,18,0.00
2013-3-27,66,50,34,43,36,33,96,64,32,30.55,30.26,6,0,10,0.00
2013-3-28,74,56,38,54,45,37,100,73,35,30.44,30.18,3,0,8,0.00
2013-3-29,77,62,46,58,49,37,99,71,24,30.37,30.13,5,0,12,0.00
2013-3-30,76,66,57,64,60,-100,98,84,58,30.23,30.00,6,1,15,0.00
2013-3-31,77,65,58,68,63,56,99,93,68,30.06,29.91,12,1,32,0.29